Location: Unspecified
(51.0000°N, 12.0000°E)
Time: 09:01:55
(UTC+02:00)

XW-2F - Visible Passes

Search period start: 22 October 2019 00:00
Search period end: 31 October 2019 23:00
Orbit: 502 x 524 km, 97.5° (Epoch: 21 October)

Date Brightness Start Highest point End Pass type
(mag) Time Alt. Az. Time Alt. Az. Time Alt. Az.
22 Oct ? 06:10:11 10° ENE 06:11:34 12° E 06:12:57 10° ESE visible
23 Oct ? 19:48:24 10° WSW 19:49:30 11° W 19:50:36 10° WNW visible
24 Oct ? 07:11:20 10° NNE 07:14:59 52° E 07:18:36 10° S visible
24 Oct ? 19:31:28 10° SW 19:33:48 16° W 19:36:09 10° NW visible
25 Oct ? 06:55:58 10° NNE 06:59:23 35° E 07:02:49 10° SSE visible
25 Oct ? 19:15:10 10° SSW 19:18:09 22° W 19:21:08 10° NW visible
26 Oct ? 06:40:41 10° NE 06:43:46 24° E 06:46:50 10° SSE visible
26 Oct ? 18:59:09 10° SSW 19:02:31 32° W 19:05:53 10° NNW visible
27 Oct ? 05:25:36 10° NE 05:28:07 17° E 05:30:38 10° SE visible
27 Oct ? 17:43:19 10° S 17:46:55 47° W 17:50:32 10° NNW visible
28 Oct ? 05:10:55 10° ENE 05:12:26 12° E 05:13:55 10° ESE visible
28 Oct ? 17:27:39 10° S 17:31:21 71° WSW 17:35:04 10° NNW visible
29 Oct ? 18:49:26 10° WSW 18:50:21 11° W 18:51:16 10° WNW visible
30 Oct ? 06:12:09 10° NNE 06:15:49 53° E 06:19:28 10° S visible
30 Oct ? 18:32:22 10° SW 18:34:38 15° W 18:36:55 10° NW visible
31 Oct ? 05:56:45 10° NNE 06:00:13 36° E 06:03:40 10° SSE visible
31 Oct ? 18:16:02 10° SW 18:18:58 22° W 18:21:55 10° NW visible
